Weather Roundup
Issued by NWS

Home | Current Version | Previous Version | Text Only | Print | Product List | Glossary On
Versions: 1 2 3 4 5 6 7 8 9 10 11 12 13 14 15 16 17 18 19 20 21 22 23 24 25 26 27 28 29 30 31 32 33 34 35 36 37 38 39 40 41 42 43 44 45 46 47 48 49 50
000
NZUS93 KARX 091859
HRRWXR

CURRENT HOURLY OBSERVATIONS ACROSS
MUCH OF THE UPPER MISSISSIPPI VALLEY
NATIONAL WEATHER SERVICE LA CROSSE WI
200 PM CDT WED JUL 09 2014


...SOUTHEAST MINNESOTA...


CITY           SKY/WX    TMP DP  RH WIND       PRES   REMARKS
ROCHESTER      MOSUNNY   73  55  53 NW9       30.03F
ROCHESTER/MAYO MOCLDY    72  49  44 W7        30.02S
WINONA         MOSUNNY   73  54  49 N5        30.01S
AUSTIN         MOSUNNY   73  48  40 NW3       30.02S
ALBERT LEA     PTSUNNY   73  52  46 W7        30.02S
DODGE CENTER   MOSUNNY   73  55  53 NW7       30.03S
PRESTON        PTSUNNY   71  56  58 N7        30.03F
OWATONNA       SUNNY     75  54  46 NW5       30.02S
FARIBAULT      SUNNY     79  48  34 W3        30.02S
$$

...ELSEWHERE IN MINNESOTA...


CITY           SKY/WX    TMP DP  RH WIND       PRES   REMARKS
MINNEAPOLIS    PTSUNNY   75  53  46 VRB5      30.00S
INTNL FALLS    PTSUNNY   67  49  52 N9        29.99F
DULUTH         MOSUNNY   70  48  45 VRB7      29.99S
RED WING       MOSUNNY   75  52  43 NW9       30.00S
REDWOOD FALLS  SUNNY     80  51  36 NW8       30.00F
MANKATO        MOSUNNY   77  52  41 W10       30.00F
WORTHINGTON    MOSUNNY   75  55  50 W9        30.05F
FAIRMONT       PTSUNNY   79  54  41 N12G17    30.02F
$$

...SOUTHWEST WISCONSIN...


CITY           SKY/WX    TMP DP  RH WIND       PRES   REMARKS
LA CROSSE      SUNNY     77  51  40 NW10      30.00F
PRAIRIE DU CHI SUNNY     74  51  44 NW10      30.01S
BOSCOBEL       PTSUNNY   78  52  40 VRB7      30.01S
LONE ROCK      NOT AVBL
PLATTEVILLE    MOSUNNY   74  52  46 NW10      30.02S
FORT MC COY    SUNNY     72  45  38 N12       30.01F
VIROQUA        MOCLDY    71  51  48 NW10      30.02S
WIS DELLS      MOSUNNY   73  45  37 NW14      29.99S
$$

...ELSEWHERE IN WISCONSIN...


CITY           SKY/WX    TMP DP  RH WIND       PRES   REMARKS
MILWAUKEE      MOSUNNY   75  52  44 NW12      29.95S
MADISON        MOSUNNY   74  49  41 NW15G22   29.98S
GREEN BAY      PTSUNNY   70  52  52 NW13G20   29.95R
EAU CLAIRE     NOT AVBL
BLACK RVR FLS  FAIR      74  46  37 N9        30.00S
MEDFORD        PTSUNNY   65  50  57 NW12G18   30.00S
WAUSAU         LGT RAIN  67  47  48 NW14G21   29.97S
WIS RAPIDS     PTSUNNY   70  48  45 NW13G20   30.00S
MARSHFIELD     PTSUNNY   69  51  52 NW14      30.00R
RICE LAKE      CLOUDY    70  53  54 W7        30.01F
$$

...NORTHEAST IOWA...


CITY           SKY/WX    TMP DP  RH WIND       PRES   REMARKS
WATERLOO       MOSUNNY   78  53  41 VRB7      30.02F
DUBUQUE        MOSUNNY   73  55  53 N10       30.02F
DECORAH          N/A    N/A N/A N/A MISG        N/A
MASON CITY     MOSUNNY   77  55  46 NW8       30.04F
CHARLES CITY   PTSUNNY   73  54  49 NW7G15    30.04S
OELWEIN        MOSUNNY   75 -35   1 NW12      30.04S
$$

...ELSEWHERE IN IOWA...


CITY           SKY/WX    TMP DP  RH WIND       PRES   REMARKS
DES MOINES     MOSUNNY   80  54  40 N6        30.04F
IOWA CITY      SUNNY     76  55  48 VRB6      30.04F
FORT DODGE     PTSUNNY   77  57  50 W3        30.05F
MARSHALLTOWN   MOSUNNY   75  55  49 N8        30.04F
CEDAR RAPIDS   MOSUNNY   76  54  46 VRB5      30.03S
$$

...NORTHERN ILLINOIS...


CITY           SKY/WX    TMP DP  RH WIND       PRES   REMARKS
CHICAGO-OHARE  PTSUNNY   78  54  43 NW16      29.94F
DUPAGE         MOSUNNY   77  57  50 NW14      29.96S
CHICAGO-MIDWAY MOSUNNY   77  59  53 NE9       29.95S
MOLINE         SUNNY     78  54  43 NW12      30.00F
ROCKFORD       MOSUNNY   76  54  46 NW12      29.99S
STERLING       MOSUNNY   79  57  47 N14       30.00S
PEORIA         MOSUNNY   78  56  46 NW10      29.99F
$$

NOTE: "FAIR" INDICATES FEW OR NO CLOUDS BELOW 12,000 FEET WITH NO
SIGNIFICANT WEATHER AND/OR OBSTRUCTIONS TO VISIBILITY. WIND
SPEEDS ARE IN MILES-PER-HOUR.



USA.gov is the U.S. government's official web portal to all federal, state and local government web resources and services.